Yakima, WA
on Thursday, November 22, 2012

Thursday
Previous Day Next Day
Daily Summary
 ActualAverageRecord
Temperature
Mean Temperature °F 35°F  
Max Temperature 46°F 44°F 66°F (1959)
Min Temperature 27°F 25°F -11°F (1985)
Degree Days
Heating Degree Days 28 30  
Month to date heating degree days 473 575  
Since 1 July heating degree days 1010 1279  
Cooling Degree Days 0 0  
Month to date cooling degree days 0 0  
Year to date cooling degree days 667 472  
Moisture
Dew Point 28°F   
Average Humidity 69    
Maximum Humidity 85    
Minimum Humidity 53    
Precipitation
Precipitation 0.00 in 0.03 in 0.38 in (1946)
Month to date precipitation 0.56 0.72  
Year to date precipitation 7.09 6.39  
Snow
Snow 0.00 in 0.20 in 4.00 in (1946)
Month to date snowfall 0.8 1.8  
Year to date snowfall 22.3 10.5  
Since 1 July snowfall 0.8 1.9  
Snow Depth 0.00 in   
Wind
Wind Speed 3 mph   
Max Wind Speed 12 mph   
Max Gust Speed 24 mph   
Visibility 10 miles   
Events     

Key: T is trace of precipitation, MM is missing value
Source: NWS Daily Summary
Time(PST)TemperatureDew PointHumidity Pressure Visibility Wind DirectionWind SpeedGust SpeedPrecipitationEvents Conditions
12:53 AM 30.0°F 26.1°F 85% 30.32 in 10.0 miles West 3.5 mph - N/A   Clear
1:53 AM 28.9°F 25.0°F 85% 30.35 in 10.0 miles West 5.8 mph - N/A   Clear
2:53 AM 30.0°F 26.1°F 85% 30.37 in 10.0 miles West 8.1 mph - N/A   Clear
3:53 AM 30.9°F 26.1°F 82% 30.37 in 10.0 miles NW 4.6 mph - N/A   Clear
4:53 AM 30.9°F 26.1°F 82% 30.39 in 10.0 miles SSW 3.5 mph - N/A   Clear
5:53 AM 32.0°F 26.1°F 79% 30.40 in 10.0 miles North 3.5 mph - N/A   Clear
6:53 AM 32.0°F 27.0°F 82% 30.42 in 10.0 miles Calm Calm - N/A   Clear
7:53 AM 30.9°F 27.0°F 85% 30.45 in 10.0 miles West 3.5 mph - N/A   Clear
8:53 AM 35.1°F 28.9°F 78% 30.44 in 10.0 miles Calm Calm - N/A   Partly Cloudy
9:53 AM 39.0°F 30.0°F 70% 30.46 in 10.0 miles Calm Calm - N/A   Partly Cloudy
10:53 AM 41.0°F 30.0°F 65% 30.45 in 10.0 miles Calm Calm - N/A   Mostly Cloudy
11:53 AM 42.1°F 28.9°F 60% 30.44 in 10.0 miles Calm Calm - N/A   Clear
12:53 PM 45.0°F 28.9°F 53% 30.43 in 10.0 miles Calm Calm - N/A   Clear
1:53 PM 45.0°F 28.9°F 53% 30.42 in 10.0 miles Calm Calm - N/A   Clear
2:53 PM 45.0°F 30.0°F 56% 30.43 in 10.0 miles Calm Calm - N/A   Partly Cloudy
3:53 PM 44.1°F 30.0°F 58% 30.43 in 10.0 miles Calm Calm - N/A   Scattered Clouds
4:53 PM 39.0°F 30.9°F 73% 30.43 in 10.0 miles Calm Calm - N/A   Partly Cloudy
5:53 PM 35.1°F 28.9°F 78% 30.43 in 10.0 miles WNW 5.8 mph - N/A   Partly Cloudy
6:53 PM 35.1°F 28.9°F 78% 30.43 in 10.0 miles Calm Calm - N/A   Partly Cloudy
7:53 PM 33.1°F 28.9°F 85% 30.43 in 10.0 miles West 5.8 mph - N/A   Clear
8:53 PM 33.1°F 28.9°F 85% 30.41 in 10.0 miles West 5.8 mph - N/A   Clear
9:53 PM 35.1°F 30.0°F 82% 30.39 in 10.0 miles West 5.8 mph - N/A   Clear
10:53 PM 35.1°F 30.0°F 82% 30.38 in 10.0 miles WNW 4.6 mph - N/A   Clear
11:53 PM 35.1°F 30.0°F 82% 30.38 in 10.0 miles Calm Calm - N/A   Partly Cloudy
Moon Phase
Nov. 22 Nov. 28 Dec. 06 Dec. 13 Dec. 20
Sunrise:07:14 AM (PST) Moon Rise:01:25 PM (PST)11/22
Sunset:04:21 PM (PST) Moon Set:01:21 AM (PST)11/22

Copyright © 2014 The Weather Underground, Inc.